Stations météo

réclame
Mon MeteoGroup
Angermünde, Allemagne (10291): Température de l'air & dewpoint: 10.11.2018 00:00:00 - 16.11.2018 00:00:00 (CET)Angermünde, Allemagne (10291): Température de l'air 5cm & Température de l'air -5cm: 10.11.2018 00:00:00 - 16.11.2018 00:00:00 (CET)Angermünde, Allemagne (10291): Température de l'air -20cm & Température de l'air -100cm: 10.11.2018 00:00:00 - 16.11.2018 00:00:00 (CET)Angermünde, Allemagne (10291): Vitesse du vent & gusts: 10.11.2018 00:00:00 - 16.11.2018 00:00:00 (CET)Angermünde, Allemagne (10291): Direction du vent: 10.11.2018 00:00:00 - 16.11.2018 00:00:00 (CET)Angermünde, Allemagne (10291): reduced air pressure: 10.11.2018 00:00:00 - 16.11.2018 00:00:00 (CET)Angermünde, Allemagne (10291): visibility: 10.11.2018 00:00:00 - 16.11.2018 00:00:00 (CET)Angermünde, Allemagne (10291): Ensoleillement: 10.11.2018 00:00:00 - 16.11.2018 00:00:00 (CET)Angermünde, Allemagne (10291): Quantités de précipitations: 10.11.2018 00:00:00 - 16.11.2018 00:00:00 (CET)
Date & Time tt [°C] td [°C] tt 5cm [°C] tt -5cm [°C] tt -20cm [°C] tt -100cm [°C] ff [km/h] ff [knt] fx [km/h] fx [knt] dd ppp [hPa] vv [km] sd [min] rr [mm]
16.11.2018 00:00:00 4,9 3,2 3,4 4,6 7,1 10,2 14 8 21 12 SE 1033,6 7 0 0,0
15.11.2018 23:00:00 4,8 3,5 3,2 4,9 7,3 10,2 13 7 21 12 SE 1033,3 6 0 0,0
15.11.2018 22:00:00 5,1 4,0 3,6 5,2 7,4 10,3 13 7 21 11 SE 1033,1 6 0 0,0
15.11.2018 21:00:00 5,5 4,3 3,8 5,5 7,6 10,3 11 6 19 10 SE 1032,8 7 0 0,0
15.11.2018 20:00:00 5,9 5,3 4,3 5,8 7,8 10,3 11 6 22 12 ESE 1032,3 6 0 0,0
15.11.2018 19:00:00 6,5 5,2 5,0 6,1 8,0 10,3 14 8 22 12 ESE 1032,0 10 0 0,0
15.11.2018 18:00:00 6,1 5,0 4,1 6,6 8,1 10,3 10 5 16 9 ESE 1031,7 16 0 0,0
15.11.2018 17:00:00 7,1 5,4 4,5 7,3 8,2 10,3 9 5 16 8 ESE 1031,6 22 0 0,0
15.11.2018 16:00:00 8,7 6,2 7,4 8,1 8,2 10,3 13 7 24 13 ESE 1031,4 17 40 0,0
15.11.2018 15:00:00 9,9 6,3 10,2 8,7 8,1 10,3 16 8 23 13 ESE 1031,3 25 59 0,0
15.11.2018 14:00:00 10,6 6,2 10,9 8,9 7,9 10,3 13 7 22 12 SE 1031,0 30 57 0,0
15.11.2018 13:00:00 9,8 6,8 10,5 8,7 7,7 10,3 13 7 19 10 SE 1031,4 23 31 0,0
15.11.2018 12:00:00 9,2 6,5 9,7 8,3 7,5 10,3 13 7 22 12 SSE 1031,5 21 0 0,0
15.11.2018 11:00:00 8,2 6,8 8,6 7,7 7,3 10,3 10 5 20 11 SSE 1031,6 13 34 0,0
15.11.2018 10:00:00 6,6 6,0 7,8 6,4 7,3 10,3 6 4 11 6 SSE 1031,3 7 11 0,0
15.11.2018 09:00:00 5,6 5,6 5,9 6,2 7,3 10,3 4 2 10 5 ESE 1031,2 3,9 0 0,0
15.11.2018 08:00:00 5,0 5,0 5,1 5,8 7,3 10,3 4 2 10 5 ESE 1031,1 1,6 0 0,0
15.11.2018 07:00:00 4,4 4,4 4,1 5,8 7,4 10,3 6 3 14 7 S 1030,7 0,3 0 0,0
15.11.2018 06:00:00 4,7 4,7 4,4 5,8 7,5 10,3 7 4 14 7 SSE 1030,4 0,3 0 0,0
15.11.2018 05:00:00 5,0 5,0 4,4 5,9 7,5 10,3 6 3 9 5 SE 1030,3 2,4 0 0,0
15.11.2018 04:00:00 5,1 5,1 4,7 6,0 7,6 10,3 5 3 9 5 SSE 1030,3 0,2 0 0,0
15.11.2018 03:00:00 5,2 5,2 4,7 6,1 7,7 10,3 6 3 8 4 SE 1030,3 0,1 0 0,0
15.11.2018 02:00:00 5,7 5,7 4,4 6,3 7,8 10,3 5 3 9 5 SE 1030,3 2,6 0 0,0
15.11.2018 01:00:00 5,9 5,8 5,4 6,5 7,9 10,3 6 3 10 5 S 1030,2 3,2 0 0,0
15.11.2018 00:00:00 5,9 5,8 5,4 6,5 7,9 10,3 6 3 7 4 SSE 1030,3 4,1 0 0,0
14.11.2018 23:00:00 6,0 5,9 5,4 6,5 8,0 10,3 4 2 10 5 S 1030,3 4,0 0 0,0
14.11.2018 22:00:00 6,0 5,9 5,3 6,5 8,2 10,3 6 3 8 5 S 1030,3 4,0 0 0,0
14.11.2018 21:00:00 5,7 5,4 4,2 6,7 8,3 10,3 4 2 8 5 S 1030,3 2,6 0 0,0
14.11.2018 20:00:00 6,3 6,0 4,8 7,0 8,5 10,3 6 4 8 4 SSE 1030,1 5 0 0,0
14.11.2018 19:00:00 6,5 6,1 5,0 7,3 8,6 10,3 4 2 11 6 SSW 1029,9 7 0 0,0
14.11.2018 18:00:00 7,1 6,2 6,3 7,7 8,7 10,3 8 4 14 8 WSW 1030,0 8 0 0,0
14.11.2018 17:00:00 7,5 6,4 6,8 8,0 8,8 10,3 8 4 14 7 WSW 1030,0 10 0 0,0
14.11.2018 16:00:00 7,9 6,3 6,8 8,6 8,8 10,3 8 5 17 9 WSW 1029,9 14 0 0,0
14.11.2018 15:00:00 8,5 6,4 8,0 9,1 8,8 10,3 8 4 22 12 SW 1029,4 17 19 0,0
14.11.2018 14:00:00 9,4 6,8 10,1 9,4 8,6 10,3 13 7 24 13 WSW 1029,2 18 47 0,0
14.11.2018 13:00:00 9,6 6,9 10,9 9,3 8,5 10,3 16 9 23 12 W 1029,4 16 60 0,0
14.11.2018 12:00:00 9,0 6,6 10,2 8,8 8,3 10,3 16 8 24 13 WSW 1029,1 15 48 0,0
14.11.2018 11:00:00 8,8 7,3 9,4 8,4 8,2 10,3 16 8 27 14 WSW 1028,9 12 31 0,0
14.11.2018 10:00:00 8,1 7,0 8,3 7,9 8,2 10,3 14 8 28 15 W 1028,7 9 0 0,0
14.11.2018 09:00:00 7,8 6,8 7,8 7,6 8,2 10,3 21 11 32 17 W 1028,2 9 0 0,0
14.11.2018 08:00:00 7,7 6,8 7,3 7,4 8,3 10,3 18 10 28 15 W 1027,7 10 0 0,0
14.11.2018 07:00:00 7,7 6,8 7,3 7,4 8,3 10,3 18 10 29 16 W 1027,2 11 0 0,0
14.11.2018 06:00:00 8,1 7,0 7,6 7,6 8,3 10,3 17 9 27 15 W 1027,0 14 0 0,0
14.11.2018 05:00:00 8,3 7,0 7,8 7,6 8,3 10,3 17 9 30 16 W 1027,0 17 0 0,0
14.11.2018 04:00:00 8,3 6,9 7,8 7,5 8,4 10,3 18 10 35 19 WSW 1026,7 19 0 0,0
14.11.2018 03:00:00 8,3 6,8 7,8 7,5 8,4 10,3 20 11 36 19 WSW 1026,2 19 0 0,0
14.11.2018 02:00:00 8,3 6,7 7,6 7,4 8,5 10,3 21 12 34 18 WSW 1026,1 20 0 0,0
14.11.2018 01:00:00 8,4 6,8 7,8 7,5 8,6 10,3 26 14 39 21 WSW 1025,6 21 0 0,0
14.11.2018 00:00:00 8,1 6,6 7,0 7,4 8,7 10,3 23 12 35 19 WSW 1025,4 21 0 0,0
13.11.2018 23:00:00 8,4 6,7 7,1 7,8 8,8 10,3 19 10 31 17 WSW 1025,0 27 0 0,0
13.11.2018 22:00:00 9,0 7,2 7,7 8,0 8,9 10,3 20 11 32 17 WSW 1024,7 35 0 0,0
13.11.2018 21:00:00 8,8 7,5 7,2 8,3 9,0 10,2 16 9 28 15 WSW 1024,3 24 0 0,0
13.11.2018 20:00:00 9,8 8,6 8,4 8,8 9,1 10,2 14 8 26 14 WSW 1023,6 17 0 0,0
13.11.2018 19:00:00 9,9 9,0 8,9 8,9 9,1 10,2 9 5 16 9 SW 1023,1 16 0 0,0
13.11.2018 18:00:00 10,2 9,4 9,0 9,1 9,2 10,2 9 5 15 8 SW 1022,7 13 0 0,3
13.11.2018 17:00:00 10,4 9,7 9,6 9,4 9,2 10,2 10 5 16 9 SW 1022,5 12 0 0,1
13.11.2018 16:00:00 10,5 9,8 9,4 9,8 9,1 10,2 8 5 17 9 SW 1022,1 12 7 0,0
13.11.2018 15:00:00 10,8 9,9 10,4 10,0 9,0 10,2 7 4 15 8 SW 1021,6 22 5 0,0
13.11.2018 14:00:00 10,2 9,8 10,2 9,6 8,9 10,2 7 4 17 9 SW 1021,4 15 0 0,9
13.11.2018 13:00:00 10,4 9,9 10,1 9,6 8,8 10,2 12 6 16 9 W 1021,4 8 0 0,7
13.11.2018 12:00:00 10,3 10,1 10,2 9,3 8,7 10,2 10 5 16 9 W 1020,9 6 0 1,1
13.11.2018 11:00:00 10,2 9,9 9,9 9,0 8,6 10,2 8 4 12 6 WSW 1020,9 6 0 0,9
13.11.2018 10:00:00 9,7 9,7 9,5 8,7 8,6 10,2 4 2 8 4 SW 1020,9 3,6 0 1,5
13.11.2018 09:00:00 9,3 9,3 8,9 8,6 8,6 10,3 6 3 11 6 W 1020,3 4,0 0 0,8
13.11.2018 08:00:00 9,4 9,1 8,8 8,6 8,6 10,3 8 4 12 7 S 1019,7 6 0 0,6
13.11.2018 07:00:00 9,8 8,8 9,3 8,5 8,5 10,3 7 4 10 5 SSE 1019,0 15 0 0,0
13.11.2018 06:00:00 9,8 8,8 9,1 8,5 8,5 10,3 4 2 11 6 SSW 1019,2 16 0 0,0
13.11.2018 05:00:00 10,1 8,2 9,0 8,3 8,5 10,3 9 5 14 7 SSW 1019,1 15 0 0,1
13.11.2018 04:00:00 10,6 7,9 9,7 8,1 8,5 10,3 10 6 16 9 SSW 1018,8 22 0 0,0
13.11.2018 03:00:00 10,3 7,6 8,9 8,1 8,6 10,3 8 4 16 9 SSW 1018,6 20 0 0,0
13.11.2018 02:00:00 10,6 7,6 9,3 8,3 8,6 10,3 11 6 18 10 S 1018,1 22 0 0,0
13.11.2018 01:00:00 11,0 7,8 9,8 8,2 8,6 10,3 7 4 16 9 SSW 1018,0 23 0 0,0
13.11.2018 00:00:00 11,0 7,7 9,5 8,0 8,7 10,3 9 5 15 8 SSE 1017,4 20 0 0,0
12.11.2018 23:00:00 10,8 7,7 9,0 8,2 8,7 10,3 9 5 18 10 S 1017,4 19 0 0,0
12.11.2018 22:00:00 10,7 8,2 9,2 8,6 8,8 10,3 10 6 21 12 SSE 1017,2 14 0 0,0
12.11.2018 21:00:00 11,2 8,7 9,9 8,8 8,8 10,3 15 8 22 12 S 1016,7 14 0 0,0
12.11.2018 20:00:00 11,6 9,1 10,5 9,0 8,8 10,3 14 7 27 15 SSE 1016,7 13 0 0,0
12.11.2018 19:00:00 12,5 9,4 11,4 9,3 8,8 10,3 18 10 29 16 SSE 1016,5 14 0 0,0
12.11.2018 18:00:00 12,6 9,3 11,7 9,2 8,7 10,3 18 10 27 14 SSE 1016,7 17 0 0,0
12.11.2018 17:00:00 12,6 9,2 11,4 9,3 8,7 10,3 18 10 29 16 SSE 1016,6 20 0 0,0
12.11.2018 16:00:00 13,2 9,4 11,9 9,8 8,6 10,3 20 11 32 17 SSE 1016,4 25 0 0,0
12.11.2018 15:00:00 13,0 9,8 12,6 9,7 8,4 10,3 14 7 27 15 SSE 1016,4 21 0 0,0
12.11.2018 14:00:00 11,9 9,6 11,7 9,5 8,2 10,3 13 7 28 15 SSE 1016,8 14 0 0,0
12.11.2018 13:00:00 11,4 9,3 10,8 9,4 8,0 10,3 14 8 22 12 SSE 1017,3 13 0 0,0
12.11.2018 12:00:00 10,5 9,0 10,4 8,7 7,9 10,3 8 4 13 7 SSE 1017,7 10 2 0,0
12.11.2018 11:00:00 9,4 8,5 9,1 8,1 7,8 10,3 8 4 18 10 SE 1018,4 8 0 0,0
12.11.2018 10:00:00 8,7 8,0 8,5 7,6 7,7 10,3 9 5 19 10 SSE 1018,4 7 0 0,0
12.11.2018 09:00:00 8,0 7,4 7,7 7,1 7,7 10,3 8 4 13 7 SSE 1018,0 6 2 0,0
12.11.2018 08:00:00 7,5 7,1 6,8 6,9 7,8 10,3 7 4 10 5 SSE 1017,8 6 0 0,0
12.11.2018 07:00:00 7,4 7,1 6,6 6,9 7,8 10,3 7 4 17 9 S 1017,3 6 0 0,0
12.11.2018 06:00:00 7,4 7,2 6,7 7,1 7,8 10,3 8 5 11 6 S 1017,0 5 0 0,0
12.11.2018 05:00:00 7,7 7,4 6,8 7,3 7,8 10,3 5 3 14 8 S 1017,0 6 0 0,0
12.11.2018 04:00:00 8,2 7,5 7,5 7,3 7,8 10,3 12 7 19 11 SSE 1016,8 7 0 0,0
12.11.2018 03:00:00 7,8 7,2 7,2 7,2 7,7 10,3 10 6 14 8 SSE 1016,9 7 0 0,1
12.11.2018 02:00:00 8,0 7,5 7,5 7,2 7,7 10,3 6 4 14 8 S 1016,9 7 0 0,1
12.11.2018 01:00:00 8,2 7,8 7,6 7,0 7,7 10,3 8 5 16 9 S 1016,5 7 0 0,4
12.11.2018 00:00:00 7,7 7,2 7,0 6,8 7,7 10,3 10 6 18 10 SE 1015,5 7 0 0,0
11.11.2018 23:00:00 7,5 7,2 7,0 6,5 7,8 10,3 9 5 18 10 S 1015,3 6 0 0,0
11.11.2018 22:00:00 6,9 6,8 5,7 6,5 7,8 10,3 11 6 18 10 SSE 1014,9 4,7 0 0,0
11.11.2018 21:00:00 7,2 7,0 6,1 6,6 7,9 10,3 13 7 18 10 SSE 1014,5 4,6 0 0,0
11.11.2018 20:00:00 7,3 7,2 6,3 6,6 8,0 10,3 14 8 22 12 S 1014,6 3,6 0 0,0
11.11.2018 19:00:00 7,1 6,9 6,0 6,8 8,1 10,3 15 8 22 12 SSE 1013,8 3,7 0 0,0
11.11.2018 18:00:00 7,5 7,4 6,4 7,1 8,2 10,3 13 7 19 10 SSE 1013,8 3,4 0 0,0
11.11.2018 17:00:00 8,0 7,7 6,8 7,6 8,2 10,3 13 7 26 14 SSE 1013,4 4,2 0 0,0
11.11.2018 16:00:00 8,5 8,0 7,6 8,2 8,2 10,3 17 9 29 16 S 1013,2 4,2 27 0,0
11.11.2018 15:00:00 8,0 7,9 7,8 8,0 8,1 10,3 8 5 18 10 SSE 1012,4 3,2 0 0,4
11.11.2018 14:00:00 7,8 7,6 7,7 8,1 8,1 10,3 10 6 21 12 S 1013,0 3,0 0 0,6
11.11.2018 13:00:00 7,3 6,4 7,8 8,0 8,0 10,3 14 7 21 11 SSE 1012,2 5 0 0,0
11.11.2018 12:00:00 6,7 6,3 7,2 7,8 7,9 10,3 14 8 22 12 SSE 1012,3 4,3 0 0,1
11.11.2018 11:00:00 5,9 5,4 6,5 7,5 7,9 10,3 11 6 26 14 S 1012,1 4,5 0 0,0
11.11.2018 10:00:00 5,6 5,6 6,0 7,1 7,9 10,3 13 7 24 13 SSE 1011,7 4,0 0 0,0
11.11.2018 09:00:00 5,3 5,3 5,6 7,1 8,0 10,3 14 8 21 12 SE 1011,5 1,4 0 0,0
11.11.2018 08:00:00 5,3 5,3 5,5 7,0 8,0 10,3 9 5 20 11 SSE 1012,0 0,5 0 0,0
11.11.2018 07:00:00 5,1 5,1 5,2 7,0 8,1 10,3 11 6 22 12 SSE 1011,6 0,4 0 0,0
11.11.2018 06:00:00 5,1 5,1 5,2 7,2 8,1 10,3 11 6 20 11 SSE 1011,4 0,3 0 0,0
11.11.2018 05:00:00 5,4 5,4 5,5 7,4 8,2 10,3 11 6 18 10 SSE 1011,3 0,6 0 0,0
11.11.2018 04:00:00 6,1 6,1 6,2 7,5 8,2 10,3 14 7 26 14 SSE 1011,2 0,4 0 0,0
11.11.2018 03:00:00 6,6 6,6 6,6 7,6 8,2 10,3 13 7 24 13 SE 1011,1 0,5 0 0,0
11.11.2018 02:00:00 6,9 6,9 6,9 7,7 8,2 10,3 13 7 25 13 SSE 1011,0 0,5 0 0,0
11.11.2018 01:00:00 7,0 7,0 7,0 7,7 8,3 10,3 14 8 23 12 SSE 1011,2 0,5 0 0,0
11.11.2018 00:00:00 7,2 7,2 7,2 7,7 8,3 10,3 14 7 26 14 SSE 1011,4 0,6 0 0,0
10.11.2018 23:00:00 7,2 7,2 7,2 7,6 8,3 10,3 16 9 26 14 SSE 1011,1 0,5 0 0,0
10.11.2018 22:00:00 7,3 7,3 7,2 7,5 8,4 10,3 16 9 26 14 SSE 1011,3 0,6 0 0,0
10.11.2018 21:00:00 7,6 7,2 6,6 7,4 8,5 10,3 15 8 22 12 SE 1011,2 3,6 0 0,0
10.11.2018 20:00:00 8,5 7,5 7,5 7,7 8,5 10,3 15 8 26 14 SSE 1011,0 5 0 0,0
10.11.2018 19:00:00 9,4 7,9 8,1 7,8 8,6 10,4 14 8 25 13 SSE 1011,0 6 0 0,0
10.11.2018 18:00:00 9,6 7,9 8,0 8,1 8,7 10,4 11 6 26 14 SSE 1011,2 7 0 0,0
10.11.2018 17:00:00 9,9 8,1 8,5 8,5 8,7 10,4 13 7 21 11 SE 1010,4 7 0 0,0
10.11.2018 16:00:00 10,8 8,0 9,5 9,0 8,7 10,4 11 6 21 11 SSE 1010,8 9 0 0,0
10.11.2018 15:00:00 11,4 8,4 11,2 9,2 8,6 10,4 13 7 26 14 S 1010,8 9 56 0,0
10.11.2018 14:00:00 10,3 8,1 11,3 9,2 8,5 10,4 12 6 22 12 SSE 1010,9 7 12 0,0
10.11.2018 13:00:00 9,8 8,0 10,8 9,1 8,4 10,4 11 6 23 13 SE 1011,2 6 1 0,0
10.11.2018 12:00:00 8,6 7,8 9,4 8,7 8,3 10,4 13 7 28 15 SSE 1011,7 4,0 0 0,0
10.11.2018 11:00:00 8,1 7,7 8,7 8,5 8,2 10,4 14 7 27 14 SSE 1012,3 3,0 0 0,0
10.11.2018 10:00:00 7,9 7,8 8,4 8,2 8,2 10,4 11 6 22 12 SSE 1012,4 2,7 0 0,0
10.11.2018 09:00:00 7,5 7,5 7,8 7,9 8,2 10,4 15 8 26 14 SSE 1012,3 2,4 0 0,0
10.11.2018 08:00:00 7,5 7,5 7,5 7,8 8,2 10,4 12 6 24 13 SSE 1012,4 1,4 0 0,0
10.11.2018 07:00:00 7,4 7,4 7,4 7,8 8,2 10,4 13 7 23 13 SE 1012,1 0,7 0 0,0
10.11.2018 06:00:00 7,4 7,4 7,5 7,8 8,2 10,4 14 8 20 11 SSE 1012,4 0,5 0 0,0
10.11.2018 05:00:00 7,6 7,6 7,6 7,8 8,2 10,4 8 5 18 10 SSE 1013,0 1,0 0 0,0
10.11.2018 04:00:00 7,5 7,5 7,5 7,8 8,2 10,4 12 6 21 11 SSE 1013,3 1,4 0 0,0
10.11.2018 03:00:00 7,6 7,6 7,5 7,8 8,2 10,4 9 5 16 9 S 1013,6 1,4 0 0,0
10.11.2018 02:00:00 7,5 7,5 7,5 7,8 8,2 10,4 8 5 16 9 SSE 1013,9 2,0 0 0,0
10.11.2018 01:00:00 7,4 7,4 7,3 7,8 8,2 10,4 8 5 18 10 SSE 1014,2 2,4 0 0,0
10.11.2018 00:00:00 7,3 7,3 7,2 7,8 8,2 10,4 10 6 19 10 SE 1014,7 3,0 0 0,0

tt = Température de l'air
td = dewpoint
tt 5cm = Température de l'air 5cm
tt -5cm = Température de l'air -5cm
tt -20cm = Température de l'air -20cm
tt -100cm = Température de l'air -100cm
ff = Vitesse du vent
fx = gusts
dd = Direction du vent
ppp = reduced air pressure
vv = visibility
sd = Ensoleillement
rr = Quantités de précipitations

stations d'obs. à proximité